Вернуться в каталог

ETS 6 DEB

АктивенHEO
NORAD 23248·DEBRIS·🇯🇵 Japan

Запущен Aug 28, 1994 с Tanegashima Space Center

Loading…

Ближайшие Пролёты (ближайшие 24 часа)

TLE

СвежийSource: Space-Track

Эпоха: Sep 14, 2026, 12:47 UTC

1 23248U 94056C   26257.53306947 -.00000146  00000-0  00000-0 0  9994
2 23248  12.1352 134.4595 5149319  13.1820 215.7052  1.70301003199223

Отслеживайте ETS 6 DEB в реальном времени с AllMySat

Download on the App Store